This demonstration page uses our WeatherBlox Daily Observations layout. Learn more.

Left ArrowRight Arrow

39.01783, -85.05884

Hourly Observations for December 1, 2017

Temp ( °F °C ) Dew Point ( °F °C ) Humidity (%) Winds ( mph kmh ) Pressure ( in mb ) Visibility ( mi km ) Precip ( " mm )
12:52 am 00:52 Clear 39 3.9 32 0 76 76 NW 8 13 30.21 1023 10 16 0.00 0.00
1:52 am 01:52 Clear 39 3.9 32 0 76 76 NW 8 13 30.20 1023 10 16 0.00 0.00
2:52 am 02:52 Clear 34 1.1 31 -0.6 89 89 Calm 30.22 1023 10 16 0.00 0.00
3:52 am 03:52 Clear 32 0 30 -1.1 92 92 Calm 30.23 1024 10 16 0.00 0.00
4:52 am 04:52 Clear 31 -0.6 30 -1.1 96 96 Calm 30.22 1023 10 16 0.00 0.00
5:52 am 05:52 Clear 30 -1.1 30 -1.1 100 100 Calm 30.22 1024 10 16 0.00 0.00
6:52 am 06:52 Clear 26 -3.3 26 -3.3 100 100 Calm 30.25 1024 10 16 0.00 0.00
7:52 am 07:52 Sunny with Patchy Fog 31 -0.6 29 -1.7 92 92 Calm 30.27 1025 7 11 0.00 0.00
8:52 am 08:52 Sunny 35 1.7 32 0 89 89 Calm 30.28 1025 8 13 0.00 0.00
9:52 am 09:52 Sunny 41 5 35 1.7 79 79 E 3 6 30.28 1025 10 16 0.00 0.00
10:52 am 10:52 Sunny 46 7.8 35 1.7 66 66 SSE 7 11 30.28 1025 10 16 0.00 0.00
11:52 am 11:52 Mostly Sunny 49 9.4 36 2.2 61 61 SSE 9 15 30.26 1025 10 16 0.00 0.00
12:52 pm 12:52 Mostly Sunny 50 10 34 1.1 54 54 SSE 7 11 30.25 1024 10 16 0.00 0.00
1:52 pm 13:52 Mostly Sunny 52 11.1 34 1.1 50 50 Calm 30.23 1024 10 16 0.00 0.00
2:52 pm 14:52 Sunny 52 11.1 30 -1.1 43 43 W 3 6 30.23 1024 10 16 0.00 0.00
3:52 pm 15:52 Sunny 53 11.7 30 -1.1 41 41 WNW 3 6 30.22 1023 10 16 0.00 0.00
4:52 pm 16:52 Sunny 50 10 30 -1.1 46 46 Calm 30.22 1023 10 16 0.00 0.00
5:52 pm 17:52 Clear 46 7.8 29 -1.7 51 51 Calm 30.22 1024 10 16 0.00 0.00
6:52 pm 18:52 Clear 43 6.1 29 -1.7 58 58 SE 5 7 30.23 1024 10 16 0.00 0.00
7:52 pm 19:52 Clear 41 5 29 -1.7 62 62 Calm 30.23 1024 10 16 0.00 0.00
8:52 pm 20:52 Clear 40 4.4 29 -1.7 65 65 Calm 30.23 1024 10 16 0.00 0.00
9:52 pm 21:52 Clear 37 2.8 29 -1.7 73 73 Calm 30.22 1023 10 16 0.00 0.00
10:52 pm 22:52 Clear 37 2.8 29 -1.7 73 73 Calm 30.21 1023 10 16 0.00 0.00
11:52 pm 23:52 Clear 36 2.2 29 -1.7 76 76 E 3 6 30.20 1023 10 16 0.00 0.00

Powered by AerisWeather